143  
ASUS46 KEKA 202214  
RWREKA  
EUREKA AREA WEATHER ROUNDUP  
NATIONAL WEATHER SERVICE EUREKA CA  
300 PM PDT THU JUN 20 2019  
 
NOTE: "FAIR" INDICATES FEW OR NO CLOUDS BELOW 12,000 FEET WITH NO  
SIGNIFICANT WEATHER AND/OR S TO VISIBILITY
.  
 
SOUTHWEST OREGON...  
 
CITY SKY/WX TMP DP RH WIND PRES REMARKS
 
MEDFORD MOSUNNY 72 32 23 N10G17 30.05F  
KLAMATH FALLS SUNNY 65 26 23 N10G22 30.02F  
NORTH BEND SUNNY 62 51 67 N14G22 30.22S  
ROSEBURG PTSUNNY 69 38 32 NW14G20 30.14F  
SEXTON SUMMIT SUNNY 58 39 49 VRB3 30.12F  
BROOKINGS SUNNY 67 47 48 NW17G23 30.05S  
 
NORTHWEST CALIFORNIA...  
 
CITY SKY/WX TMP DP RH WIND PRES REMARKS
 
CRESCENT CITY SUNNY 59 46 62 NW25G40 30.04S  
MCKINLEYVILLE SUNNY 66 47 50 N18G35 30.02S  
EUREKA N/A 58 32 37 NW13G18 30.04F  
FORTUNA N/A 63 46 55 NW25 30.04S  
WEAVERVILLE N/A 81 32 17 E3 29.91F  
TRINITY CENTER N/A 77 32 19 NE6 29.92F  
UKIAH SUNNY 85 36 17 N8 29.82S  
 
NORTH & CENTRAL CALIFORNIA...  
 
CITY SKY/WX TMP DP RH WIND PRES REMARKS
 
YREKA SUNNY 71 25 17 N14G26 30.03F  
MOUNT SHASTA SUNNY 68 24 19 NW10G21 30.00F  
REDDING SUNNY 89 29 11 NE16 29.79F  
RED BLUFF SUNNY 91 29 11 N16G25 29.78F  
CHICO MOSUNNY 91 14 6 W17G25 29.77F  
YUBA CITY SUNNY 89 48 24 VRB6 29.78F  
SACRAMENTO SUNNY 85 53 33 NW8 29.78F  
SANTA ROSA SUNNY 70 54 56 S13 29.86F  
NAPA LGT RAIN 71 55 56 S22 29.85F  
TRAVIS AFB NOT AVBL  
SAN FRANCISCO MOSUNNY 72 53 51 SW9 29.88S  
OAKLAND MOSUNNY 68 54 60 NW20 29.89S  
STOCKTON NOT AVBL  
SALINAS CLOUDY 65 54 67 NW15 29.92S  
MONTEREY CLOUDY 59 53 80 SW15 29.93S  
 

 
 
 
CLICK HERE TO GO TO PREVIOUS BULLETINS.

The Nexlab CA Page Main Text Page